Regional Weather Roundup
Issued by NWS Northern Indiana

Home | Current Version | Previous Version | Text Only | Print | Product List | Glossary Off
Versions: 1 2 3 4 5 6 7 8 9 10 11 12 13 14 15 16 17 18 19 20 21 22 23 24 25 26 27 28 29 30 31 32 33 34 35 36 37 38 39 40 41 42 43 44 45 46 47 48 49 50

000
ASUS43 KIWX 012000
RWRIWX

KIWX WEATHER ROUNDUP
NATIONAL WEATHER SERVICE NORTHERN INDIANA
300 PM EST SUN MAR 01 2015

NOTE: "FAIR" INDICATES FEW OR NO CLOUDS BELOW 12,000 FEET WITH NO
SIGNIFICANT WEATHER AND/OR OBSTRUCTIONS TO VISIBILITY.

* THESE STATIONS ARE NOT UNDER NWS QUALITY CONTROL. THEY ALSO MAY NOT
  REPORT WEATHER SUCH AS PRECIPITATION OR FOG.

INZ001>027-012100-
NORTHERN INDIANA

CITY           SKY/WX    TMP DP  RH WIND       PRES   REMARKS
GARY*          LGT SNOW  27  16  63 W7        30.32F WCI  19
VALPARAISO     CLOUDY    23  18  81 SW6       30.30S WCI  16
KNOX*            N/A     23  10  58 NW6       30.30S WCI  16
SOUTH BEND     LGT SNOW  24  18  77 CALM      30.30F
GOSHEN         LGT SNOW  22  19  89 W3        30.28F FOG
MONTICELLO*    CLOUDY    24  21  87 W5        30.29F WCI  19
ANGOLA*        CLOUDY    23  18  80 N5        30.26F WCI  17
FORT WAYNE     CLOUDY    24  21  88 CALM      30.27F FOG
PERU/GRISSOM   LGT SNOW  25  21  86 W3        30.27F FOG

$$
INZ028>050-012100-
CENTRAL INDIANA

CITY           SKY/WX    TMP DP  RH WIND       PRES   REMARKS
LAFAYETTE      CLOUDY    25  21  85 NW5       30.30F WCI  19
KOKOMO*        PTSUNNY   27  21  80 CALM      30.28F
MUNCIE*        LGT SNOW  27  25  92 NW6       30.26F VSB 3/4 WCI  20
INDIANAPOLIS   LGT SNOW  30  27  88 NW5       30.27S VSB 1   WCI  25

$$
MIZ043>046-050>051-056>058-064>065-071>073-077>080-012100-
SOUTHWEST LOWER MICHIGAN

CITY           SKY/WX    TMP DP  RH WIND       PRES   REMARKS
BATTLE CREEK   MOSUNNY   24  16  71 S7        30.25F WCI  16
BENTON HARBOR  PTSUNNY   22  18  85 W10       30.29F WCI  11
COLDWATER*     LGT SNOW  24  18  78 W3        30.25F
HILLSDALE*     LGT SNOW  24  18  78 W3        30.23F
HOLLAND        LGT SNOW  24  19  81 SW12      30.28F WCI  13
GRAND RAPIDS   CLOUDY    25  15  66 W15       30.26F WCI  13
KALAMAZOO      PTSUNNY   24  15  68 SW3       30.26F
STURGIS*       LGT SNOW  21  18  86 CALM      30.26F
THREE RIVERS*  LGT SNOW  23  18  82 CALM      30.27F

$$
OHZ001>008-015>018-024>025-012100-
NORTHWEST OHIO

CITY           SKY/WX    TMP DP  RH WIND       PRES   REMARKS
DEFIANCE       LGT SNOW  24  19  81 NW5       30.28F WCI  18
FINDLAY        LGT SNOW  25  21  85 W3        30.25F VSB 3/4
TOLEDO EXPRESS LGT SNOW  22  18  85 VRB5      30.27F FOG     WCI  16
TOLEDO METCALF LGT SNOW  24  20  84 W5        30.28F FOG     WCI  18
LIMA           LGT SNOW  27  23  85 NW6       30.25F FOG     WCI  20

$$
AND FOR LAKE MICHIGAN COASTAL AND OPEN LAKE BUOY OBSERVATIONS

STATION/POSITION TEMP    WIND        PRES    VSBY  WAVE
                 AIR SEA DIR/SP/G                  HT/PER
                 (F)     (DEG/KT/KT) (MB)    (MI)  (FT/S)
CALUMET HARBOR           200/  5/  7 1025.0F
MICHIGAN CITY     25     290/  3/  4   N/A
SAINT JOSEPH      24     190/  7/  8 1026.8F

$$
&&



USA.gov is the U.S. government's official web portal to all federal, state and local government web resources and services.